www.pogodaiklimat.ru

Погода и климат >> Архив погоды >> Австралия >> Северная территория >> Пойнт Стьюарт


ПОГОДА в Пойнт Стьюарт

  • Прогноз погоды в Пойнт Стьюарт
  • Монитор погоды в Пойнт Стьюарт

АРХИВ ПОГОДЫ в Пойнт Стьюарт

Время (UTC), дата Ветер
(напр.,м/с)
 
Видим.   Явления Облачность Т
(С)
Тd
(С)
f
(%)
Тe
(С)
Тes
(С)
Комфортность P
(гПа)
Po
(гПа)
Тmin
(С)
Tmax
(С)
R
(мм)
R24
(мм)
S
(см)
20 19.03 штиль 0 н/о н/о +24.1 +24.1 100 +33 +33 очень
душно
1006.7 1006.5
23 19.03 ЮЗ 3 н/о н/о +29.6 +27.6 89 +48 +48 опасность
перегрева
1008.7 1008.5 0.6
02 20.03 З 6 н/о н/о +33.8 +26.8 67 +51 +51 опасность
перегрева
1008.0 1007.8 +23.4
05 20.03 СЗ 7 н/о н/о +34.8 +27.8 67 +55 +55 опасность
перегрева
1005.7 1005.5
08 20.03 З 5 н/о н/о +31.0 +26.3 76 +47 +47 опасность
перегрева
1005.7 1005.5
11 20.03 З 6 н/о н/о +29.7 +26.3 82 +45 +45 опасность
перегрева
1008.0 1007.8
14 20.03 З 1 н/о н/о +27.4 +26.3 94 +42 +42 опасность
перегрева
1008.2 1008.0 +35.4
17 20.03 З 4 н/о н/о +27.6 +26.7 95 +43 +43 опасность
перегрева
1006.2 1006.0
20 20.03 З 2 н/о н/о +26.4 +26.4 100 +40 +40 очень
душно
1006.4 1006.2
23 20.03 З 4 н/о н/о +29.7 +27.3 87 +47 +47 опасность
перегрева
1008.6 1008.4
02 21.03 ЮЗ 5 н/о н/о +34.7 +26.1 61 +51 +51 опасность
перегрева
1007.8 1007.6 +26.0
05 21.03 СЗ 5 н/о н/о +35.5 +27.4 63 +54 +54 опасность
перегрева
1004.5 1004.3
11 21.03 З 8 н/о н/о +30.5 +26.0 77 +46 +46 опасность
перегрева
1006.5 1006.3
17 21.03 З 4 н/о н/о +28.9 +27.7 93 +47 +47 опасность
перегрева
1006.8 1006.6
23 21.03 ЮВ 3 н/о {туман} н/о +23.1 +23.1 100 +32 +32 очень
душно
1009.9 1009.7 38
02 22.03 СЗ 5 н/о {туман} н/о +25.9 +25.4 97 +38 +38 очень
душно
1008.1 1007.9 +22.8
05 22.03 З 6 н/о {туман} н/о +30.2 +25.3 75 +44 +44 опасность
перегрева
1005.1 1004.9 3
08 22.03 З 7 н/о н/о +29.2 +25.4 80 +43 +43 опасность
перегрева
1004.2 1004.0
11 22.03 З 3 н/о н/о +26.3 +25.3 94 +38 +38 очень
душно
1006.4 1006.2 3
14 22.03 З 1 н/о н/о +25.8 +25.8 100 +38 +38 очень
душно
1006.7 1006.5 +31.3
17 22.03 З 4 н/о н/о +24.7 +24.0 96 +34 +34 очень
душно
1004.8 1004.6
20 22.03 З 4 н/о н/о +26.3 +24.9 92 +38 +38 очень
душно
1004.9 1004.7
23 22.03 З 3 н/о н/о +28.0 +26.2 90 +42 +42 опасность
перегрева
1007.0 1006.8 3
02 23.03 СЗ 7 н/о н/о +31.5 +26.1 73 +47 +47 опасность
перегрева
1006.4 1006.2 +23.3
05 23.03 СЗ 9 н/о н/о +31.5 +27.2 78 +50 +50 опасность
перегрева
1003.5 1003.3
08 23.03 ЮЗ 4 н/о {туман} н/о +24.2 +24.2 100 +33 +33 очень
душно
1004.9 1004.7
11 23.03 З 8 н/о {туман} н/о +27.0 +25.0 89 +39 +39 очень
душно
1005.9 1005.7 30
14 23.03 З 8 н/о н/о +27.6 +24.8 85 +39 +39 очень
душно
1005.4 1005.2 +33.1
17 23.03 З 7 н/о {туман} н/о +28.4 +26.8 91 +44 +44 опасность
перегрева
1005.5 1005.3
20 23.03 З 9 н/о н/о +27.4 +25.2 88 +40 +40 очень
душно
1005.6 1005.4
23 23.03 З 7 н/о н/о +28.3 +25.9 87 +42 +42 опасность
перегрева
1008.3 1008.1 30
02 24.03 З 7 н/о {туман} н/о +30.2 +26.6 81 +47 +47 опасность
перегрева
1008.2 1008.0 +22.6
05 24.03 СЗ 6 н/о {туман} н/о +30.7 +27.7 84 +50 +50 опасность
перегрева
1006.0 1005.8 32
08 24.03 ЮЗ 7 н/о н/о +27.9 +23.9 79 +39 +39 очень
душно
1006.8 1006.6
11 24.03 З 6 н/о н/о +26.9 +25.7 93 +40 +40 очень
душно
1008.1 1007.9 32
14 24.03 З 3 н/о н/о +26.6 +26.3 98 +40 +40 очень
душно
1009.2 1009.0 +31.5
17 24.03 З 5 н/о н/о +27.3 +25.5 90 +40 +40 очень
душно
1007.3 1007.1
20 24.03 З 3 н/о н/о +27.4 +26.9 97 +43 +43 опасность
перегрева
1008.7 1008.5
23 24.03 З 4 н/о н/о +29.8 +26.8 84 +46 +46 опасность
перегрева
1010.5 1010.3 32
02 25.03 З 7 н/о н/о +31.0 +25.6 73 +46 +46 опасность
перегрева
1009.7 1009.5 +25.8
05 25.03 СЗ 8 н/о н/о +31.6 +25.9 72 +47 +47 опасность
перегрева
1007.8 1007.6
08 25.03 СЗ 6 н/о {туман} н/о +29.4 +28.0 92 +49 +49 опасность
перегрева
1007.4 1007.2
11 25.03 З 5 н/о {туман} н/о +28.7 +26.9 90 +45 +45 опасность
перегрева
1009.7 1009.5 1
14 25.03 З 2 н/о н/о +27.7 +27.4 98 +44 +44 опасность
перегрева
1010.3 1010.1 +32.3
17 25.03 З 5 н/о н/о +28.4 +27.7 96 +46 +46 опасность
перегрева
1008.7 1008.5
20 25.03 СЗ 5 н/о н/о +28.4 +28.2 99 +48 +48 опасность
перегрева
1009.4 1009.2
23 25.03 З 1 н/о {туман} н/о +28.0 +28.0 100 +46 +46 опасность
перегрева
1010.6 1010.4 1
02 26.03 З 4 н/о н/о +30.3 +28.5 90 +51 +51 опасность
перегрева
1009.7 1009.5 +25.3
05 26.03 Ю 4 н/о {туман} н/о +24.7 +24.7 100 +35 +35 очень
душно
1008.6 1008.4 6
08 26.03 З 5 н/о {туман} н/о +26.6 +26.6 100 +41 +41 опасность
перегрева
1008.9 1008.7
11 26.03 З 1 н/о {туман} н/о +25.8 +25.8 100 +38 +38 очень
душно
1010.3 1010.1 7

 

Местоположение метеостанции Пойнт Стьюарт (Северная территория, Австралия): широта -12.23 долгота 131.88 высота над уровнем моря 1 м.

В архиве по умолчанию представлена погода в Пойнт Стьюарт за последнюю неделю. Архивные данные за месяц целиком и за предыдущие месяцы, начиная с января 2011 года, Вы можете получить, выбрав интересующий диапазон дат из раскрывающегося списка и нажав кнопку "Ввод!".


*Определитесь, кто Вы:
робот инопланетянин человек

Внимание! Время в таблицах - всемирное. Для получения местного времени необходимо прибавить поправку, которая равна 9.5 ч.

Смотрите также архив погоды в соседних городах и на ближайших метеорологических станциях:

Погода в Милд Пойнт (Северная территория, Австралия) (75 км)
Погода в Кейп-Доне (Северная территория, Австралия) (102 км)
Погода в Дарвине (Северная территория, Австралия) (110 км)
Погода в Джаберу (Северная территория, Австралия) (121 км)
Погода в Батчелоре (Северная территория, Австралия) (130 км)
Погода на Острове Дам-ин-Мирре (Северная территория, Австралия) (170 км)
Погода в Уорруви (Северная территория, Австралия) (176 км)
Погода на Острове Маклер (Северная территория, Австралия) (178 км)
Погода на Центральном плато Арнем (Северная территория, Австралия) (179 км)
Погода в Гарден-Пойнте (Северная территория, Австралия) (184 км)

Пояснения к столбцам:

Ветер - указаны скорость ветра в м/с - средняя за 10 мин, порывы в срок и между сроками (в фигурных скобках) и направление, откуда дует ветер: С - северный, СВ - северо-восточный, В - восточный, ЮВ - юго-восточный, Ю - южный, ЮЗ - юго-западный, З - западный, СЗ - северо-западный.
Видимость - горизонтальная дальность видимости в метрах или километрах. При видимости от 1 до 10 км при отсутствии осадков обычно наблюдается дымка, при ухудшении видимости до 1 км и менее - туман. В сухую погоду видимость может ухудшаться дымом, пылью или мглою.
Явления - указаны атмосферные явления, наблюдавшиеся в срок или в последний час перед сроком; фигурными скобками обозначены явления, наблюдавшиеся между сроками (за 1-3 часа до срока); квадратными скобками обозначены град или гололедные отложения с указанием их диаметра в мм.
Облачность - указаны через наклонную черту общая и нижняя облачность в баллах и высота нижней границы облаков в метрах; квадратными скобками обозначены формы облаков: Ci - перистые, Cs - перисто-слоистые, Cc - перисто-кучевые, Ac - высококучевые, As - высокослоистые, Sc - слоисто-кучевые, Ns - слоисто-дождевые, Cu - кучевые, Cb - кучево-дождевые. Подробнее классификацию облаков см. в Атласе облаков (PDF).
T - Температура воздуха - температура, измеренная на высоте 2 м над землей.
Td - Температура точки росы - температура, при понижении до которой содержащийся в воздухе водяной пар достигнет насыщения.
f - Относительная влажность воздуха - влажноcть воздуха, измеренная на высоте 2 м над землей.
Te - Эффективная температура - температура, которую ощущает одетый по сезону человек в тени. Характеристика душности погоды. При расчете учитывается влияние влажности воздуха и скорости ветра на теплоощущения человека.
Tes - Эффективная температура на солнце - температура, которую ощущает человек, с поправкой на солнечный нагрев. Характеристика знойности погоды. Зависит от высоты солнца над горизонтом, облачности и скорости ветра. Ночью, в пасмурную погоду, а также при ветре 12 м/с и более поправка равна нулю.
P - Атмосферное давление - приведенное к уровню моря атмосферное давление.
Po - Атмосферное давление - измеренное на уровне метеостанции атмосферное давление.
Tmin - Минимальная температура - минимум температуры воздуха на высоте 2 м над землей.
Tmax - Максимальная температура - максимум температуры воздуха на высоте 2 м над землей.
R - Количество осадков - Количество выпавших осадков за период времени, мм. При наведении курсора мыши на число - период времени, за который выпало указанное количество осадков.
R24 - Количество осадков - Количество выпавших осадков за 24 часа, мм.
S - Снежный покров - Высота снежного покрова, см. При наведении курсора мыши на число - состояние снежного покрова и степень покрытия местности в баллах.